When you browse on this site, cookies collect data to enhance your experience and personalize the content and advertising you see.
Visit our Privacy Policy to learn more. By continuing to use the site, you agree to this use of cookies and data.
  • en Suisse
  • Liste des pays
  • À 7 jours
  • Température de l'eau
  • Carte météo
  • Widgets météo
  • user-avatar
    Se connecter

    Météo par heure à Linares

    Ce jour, 8 Décembre, Dimanche

    Heure Température Précipitation Vent Pression Humidité
    00:00 +7°C° 0 mm 0 m/s 732 mmHg 81%
    01:00 +7°C° 0 mm 0 m/s 731 mmHg 82%
    02:00 +7°C° 0 mm 0 m/s 731 mmHg 83%
    03:00 +7°C° 0 mm 0 m/s 731 mmHg 84%
    04:00 +6°C° 0 mm 0 m/s 731 mmHg 84%
    05:00 +6°C° 0 mm 0 m/s 731 mmHg 85%
    06:00 +6°C° 0 mm 0 m/s 731 mmHg 85%
    07:00 +7°C° 0 mm 0 m/s 731 mmHg 80%
    08:00 +8°C° 0 mm 0 m/s 732 mmHg 76%
    09:00 +10°C° 0 mm 0 m/s 732 mmHg 71%
    10:00 +11°C° 0 mm 0 m/s 732 mmHg 66%
    11:00 +13°C° 0 mm 1 m/s 732 mmHg 61%
    12:00 +15°C° 0 mm 1 m/s 732 mmHg 57%
    13:00 +15°C° 0 mm 1 m/s 731 mmHg 56%
    14:00 +15°C° 0 mm 2 m/s 731 mmHg 55%
    15:00 +16°C° 0 mm 2 m/s 731 mmHg 54%
    16:00 +14°C° 0 mm 2 m/s 731 mmHg 61%
    17:00 +12°C° 0 mm 1 m/s 731 mmHg 69%
    18:00 +11°C° 0 mm 1 m/s 731 mmHg 76%
    19:00 +11°C° 0 mm 1 m/s 732 mmHg 76%
    20:00 +9°C° 0 mm 0 m/s 732 mmHg 77%
    21:00 +9°C° 0 mm 0 m/s 732 mmHg 77%
    22:00 +9°C° 0 mm 0 m/s 732 mmHg 77%
    23:00 +9°C° 0 mm 0 m/s 733 mmHg 77%

    Demain, 9 Décembre, Lundi

    Heure Température Précipitation Vent Pression Humidité
    00:00 +10°C° 0 mm 1 m/s 733 mmHg 77%
    01:00 +9°C° 0 mm 0 m/s 733 mmHg 79%
    02:00 +9°C° 0 mm 0 m/s 732 mmHg 81%
    03:00 +8°C° 0 mm 0 m/s 732 mmHg 83%
    04:00 +8°C° 0 mm 0 m/s 732 mmHg 84%
    05:00 +8°C° 0 mm 0 m/s 732 mmHg 85%
    06:00 +7°C° 0 mm 0 m/s 732 mmHg 86%
    07:00 +8°C° 0 mm 0 m/s 733 mmHg 82%
    08:00 +11°C° 0 mm 1 m/s 733 mmHg 78%
    09:00 +12°C° 0 mm 1 m/s 734 mmHg 73%
    10:00 +13°C° 0 mm 1 m/s 734 mmHg 68%
    11:00 +15°C° 0 mm 1 m/s 734 mmHg 63%
    12:00 +16°C° 0 mm 1 m/s 734 mmHg 58%
    13:00 +18°C° 0 mm 1 m/s 734 mmHg 56%
    14:00 +18°C° 0 mm 1 m/s 733 mmHg 54%
    15:00 +19°C° 0 mm 1 m/s 733 mmHg 52%
    16:00 +16°C° 0 mm 1 m/s 733 mmHg 59%
    17:00 +14°C° 0 mm 1 m/s 733 mmHg 67%
    18:00 +12°C° 0 mm 1 m/s 733 mmHg 75%
    19:00 +11°C° 0 mm 1 m/s 733 mmHg 74%
    20:00 +11°C° 0 mm 1 m/s 733 mmHg 73%
    21:00 +10°C° 0 mm 1 m/s 733 mmHg 72%
    22:00 +10°C° 0 mm 1 m/s 733 mmHg 71%
    23:00 +10°C° 0 mm 1 m/s 733 mmHg 70%

    Après-demain, 10 Décembre, Mardi

    Heure Température Précipitation Vent Pression Humidité
    00:00 +9°C° 0 mm 1 m/s 733 mmHg 70%
    01:00 +9°C° 0 mm 1 m/s 733 mmHg 71%
    02:00 +8°C° 0 mm 1 m/s 733 mmHg 71%
    03:00 +8°C° 0 mm 1 m/s 733 mmHg 72%
    04:00 +8°C° 0 mm 1 m/s 732 mmHg 72%
    05:00 +7°C° 0 mm 1 m/s 732 mmHg 73%
    06:00 +6°C° 0 mm 2 m/s 732 mmHg 73%
    07:00 +7°C° 0 mm 2 m/s 732 mmHg 69%
    08:00 +9°C° 0 mm 2 m/s 733 mmHg 64%
    09:00 +11°C° 0 mm 1 m/s 733 mmHg 60%
    10:00 +13°C° 0 mm 1 m/s 733 mmHg 52%
    11:00 +15°C° 0 mm 1 m/s 733 mmHg 45%
    12:00 +18°C° 0 mm 1 m/s 732 mmHg 38%
    13:00 +18°C° 0 mm 1 m/s 732 mmHg 37%
    14:00 +18°C° 0 mm 1 m/s 731 mmHg 36%
    15:00 +17°C° 0 mm 0 m/s 731 mmHg 35%
    16:00 +14°C° 0 mm 0 m/s 731 mmHg 42%
    17:00 +12°C° 0 mm 0 m/s 731 mmHg 48%
    18:00 +10°C° 0 mm 0 m/s 730 mmHg 55%
    19:00 +9°C° 0 mm 0 m/s 731 mmHg 55%
    20:00 +9°C° 0 mm 0 m/s 731 mmHg 55%
    21:00 +9°C° 0 mm 0 m/s 731 mmHg 55%
    22:00 +8°C° 0 mm 0 m/s 731 mmHg 57%
    23:00 +8°C° 0 mm 0 m/s 731 mmHg 59%

    11 Décembre, Mercredi

    Heure Température Précipitation Vent Pression Humidité
    00:00 +7°C° 0 mm 0 m/s 731 mmHg 61%
    01:00 +7°C° 0 mm 0 m/s 730 mmHg 62%
    02:00 +7°C° 0 mm 0 m/s 730 mmHg 63%
    03:00 +6°C° 0 mm 0 m/s 730 mmHg 65%
    04:00 +6°C° 0 mm 0 m/s 730 mmHg 66%
    05:00 +6°C° 0 mm 0 m/s 730 mmHg 67%
    06:00 +6°C° 0 mm 0 m/s 730 mmHg 68%
    07:00 +7°C° 0 mm 0 m/s 730 mmHg 64%
    08:00 +8°C° 0 mm 0 m/s 731 mmHg 61%
    09:00 +10°C° 0 mm 0 m/s 731 mmHg 57%
    10:00 +12°C° 0 mm 1 m/s 731 mmHg 53%
    11:00 +14°C° 0 mm 2 m/s 731 mmHg 50%
    12:00 +15°C° 0 mm 2 m/s 730 mmHg 46%
    13:00 +14°C° 0 mm 3 m/s 730 mmHg 48%
    14:00 +16°C° 0 mm 3 m/s 730 mmHg 51%
    15:00 +16°C° 0 mm 3 m/s 729 mmHg 53%
    16:00 +13°C° 0 mm 3 m/s 729 mmHg 59%
    17:00 +13°C° 0 mm 2 m/s 729 mmHg 66%
    18:00 +11°C° 0 mm 1 m/s 729 mmHg 73%
    19:00 +11°C° 0 mm 1 m/s 730 mmHg 74%
    20:00 +11°C° 0 mm 1 m/s 731 mmHg 75%
    21:00 +11°C° 0 mm 1 m/s 731 mmHg 76%
    22:00 +11°C° 0 mm 1 m/s 731 mmHg 80%
    23:00 +10°C° 0 mm 1 m/s 731 mmHg 83%

    12 Décembre, Jeudi

    Heure Température Précipitation Vent Pression Humidité
    00:00 +9°C° 0 mm 1 m/s 731 mmHg 87%
    01:00 +9°C° 0 mm 1 m/s 731 mmHg 87%
    02:00 +8°C° 0 mm 0 m/s 731 mmHg 87%
    03:00 +8°C° 0 mm 0 m/s 731 mmHg 88%
    04:00 +7°C° 0 mm 0 m/s 731 mmHg 87%
    05:00 +7°C° 0 mm 0 m/s 731 mmHg 87%
    06:00 +7°C° 0 mm 0 m/s 731 mmHg 87%
    07:00 +7°C° 0 mm 0 m/s 732 mmHg 85%
    08:00 +8°C° 0 mm 0 m/s 732 mmHg 83%
    09:00 +9°C° 0 mm 0 m/s 732 mmHg 81%
    10:00 +11°C° 0 mm 1 m/s 732 mmHg 76%
    11:00 +12°C° 0 mm 2 m/s 732 mmHg 71%
    12:00 +12°C° 0 mm 3 m/s 731 mmHg 67%
    13:00 +12°C° 0 mm 3 m/s 731 mmHg 64%
    14:00 +12°C° 0 mm 3 m/s 731 mmHg 62%
    15:00 +12°C° 0 mm 4 m/s 731 mmHg 59%
    16:00 +10°C° 0 mm 3 m/s 731 mmHg 64%
    17:00 +9°C° 0 mm 3 m/s 731 mmHg 68%
    18:00 +7°C° 0 mm 3 m/s 731 mmHg 73%
    19:00 +7°C° 0 mm 2 m/s 731 mmHg 75%
    20:00 +6°C° 0 mm 2 m/s 732 mmHg 77%
    21:00 +7°C° 0 mm 1 m/s 732 mmHg 79%
    22:00 +7°C° 0 mm 1 m/s 732 mmHg 80%
    23:00 +7°C° 0 mm 1 m/s 732 mmHg 81%

    13 Décembre, Vendredi

    Heure Température Précipitation Vent Pression Humidité
    00:00 +6°C° 0 mm 1 m/s 732 mmHg 81%
    01:00 +7°C° 0 mm 1 m/s 732 mmHg 81%
    02:00 +7°C° 0 mm 1 m/s 732 mmHg 81%
    03:00 +7°C° 0 mm 1 m/s 731 mmHg 80%
    04:00 +6°C° 0 mm 2 m/s 731 mmHg 80%
    05:00 +7°C° 0 mm 2 m/s 731 mmHg 79%
    06:00 +7°C° 0 mm 2 m/s 731 mmHg 78%
    07:00 +8°C° 0 mm 2 m/s 732 mmHg 78%
    08:00 +8°C° 0 mm 2 m/s 732 mmHg 79%
    09:00 +8°C° 0 mm 2 m/s 732 mmHg 79%
    10:00 +9°C° 0 mm 2 m/s 732 mmHg 79%
    11:00 +9°C° 0 mm 2 m/s 732 mmHg 78%
    12:00 +10°C° 0 mm 2 m/s 732 mmHg 78%
    13:00 +10°C° 0 mm 3 m/s 731 mmHg 78%
    14:00 +11°C° 0 mm 3 m/s 731 mmHg 77%
    15:00 +11°C° 0 mm 3 m/s 730 mmHg 77%
    16:00 +12°C° 0 mm 2 m/s 730 mmHg 80%
    17:00 +10°C° 0 mm 2 m/s 731 mmHg 83%
    18:00 +11°C° 0 mm 1 m/s 731 mmHg 87%
    19:00 +11°C° 0 mm 1 m/s 731 mmHg 87%
    20:00 +11°C° 0 mm 1 m/s 731 mmHg 88%
    21:00 +9°C° 0 mm 0 m/s 731 mmHg 89%
    22:00 +9°C° 0 mm 0 m/s 731 mmHg 90%
    23:00 +9°C° 0 mm 0 m/s 731 mmHg 90%
    Voir plus